Starlink 34069

operational
NORAD ID: 64920 Int'l Des: 2025-157 Owner: SPXS Country: US Constellation: starlink
LEOCIRCULAR

About Starlink 34069

Description loading...

Live Position

Loading 3D Globe...

Upcoming Passes

Altitude History

Altitude vs Time

uPlot chart will show altitude changes over time

Two-Line Element Set

1 64920U 25157S 25344.50003471 .00079216 00000-0 19772-2 0 9992
2 64920 53.1573 44.0741 0001301 65.2383 177.9382 15.39507268 5827
Epoch: Dec 10, 2025 • Age: 7 hours

Current Status

Altitude 451.8 km
Velocity 7.65 km/s
Sub-Earth Point 47.55°N, 92.05°E
Launch Date Jul 26, 2025
Age 0.3 years
Type internet

Technical Details

Classification Payload
Mass 575.00 kg
Dry Mass 530.00 kg
Total Mass 575.00 kg
Length 0.30 m
Diameter 4.10 m
Span 29.00 m
Shape Box + pan
Manufacturer SPXS
Bus Type Starlink V2MO
Phase Status In Orbit
Owner/State SPXS/US

Large Constellations

Loading constellations...